Vorticity
nan nan nan nan nan nan nan nan nan nan nan nan nan nan nan nan nan nan nan nan nan nan nan nan nan nan nan nan nan nan nan nan nan nan nan nan nan nan nan nan nan nan nan
nan 9 11 9 10 9 8 8 9 8 8 8 8 8 8 8 8 8 11 10 8 11 12 9 14 14 15 12 10 11 8 8 12 13 9 7 8 9 9 8 10 9 nan
nan 8 8 9 9 9 10 9 8 10 9 9 10 9 9 7 11 10 9 9 9 10 10 10 12 11 14 18 12 10 9 10 10 9 7 9 8 9 7 8 9 9 nan
nan 8 7 9 8 8 9 9 8 8 9 9 8 9 11 10 9 11 9 9 11 9 9 12 11 11 17 16 10 9 9 8 9 11 9 8 10 8 7 8 8 9 nan
nan 9 9 9 9 9 8 9 9 7 8 9 10 10 8 10 9 9 9 11 10 10 11 11 9 12 19 15 13 11 8 8 9 9 10 9 9 10 9 8 10 9 nan
nan 12 10 10 9 9 10 10 8 9 10 10 9 13 11 6 9 8 10 10 8 10 12 11 10 8 13 16 15 11 9 7 7 7 10 11 10 8 11 10 8 9 nan
nan 16 12 11 9 9 10 10 10 10 10 10 13 11 10 5 5 10 12 9 10 10 9 11 11 10 10 9 7 9 8 8 12 13 12 9 9 10 10 11 10 9 nan
nan 11 13 11 10 10 11 10 10 11 10 11 12 10 7 5 7 10 12 14 9 8 9 14 12 12 9 10 7 4 4 8 13 19 19 13 13 14 10 10 9 9 nan
nan 13 11 12 11 11 11 9 9 10 12 12 9 9 9 5 5 11 17 15 7 7 7 10 16 14 8 9 12 9 7 6 7 12 19 19 14 11 9 8 10 8 nan
nan 15 11 12 12 11 12 10 10 11 11 10 10 9 7 6 6 8 13 18 12 6 8 5 10 12 10 11 13 11 8 8 9 7 6 9 11 9 6 8 10 7 nan
nan 18 22 13 12 12 9 12 14 11 9 9 9 8 8 7 7 6 13 17 11 13 10 9 7 9 10 10 16 15 13 8 7 9 8 8 7 8 6 8 9 13 nan
nan 12 20 18 9 13 14 12 11 9 9 9 7 6 8 9 7 7 8 11 11 11 11 13 14 9 8 9 15 17 13 5 6 9 9 9 9 8 10 11 9 9 nan
nan 14 16 19 22 20 16 8 8 9 8 8 8 8 9 8 10 12 6 6 10 10 13 14 12 7 6 11 12 9 4 6 11 9 10 11 13 12 11 10 12 10 nan
nan 15 14 15 15 9 22 20 4 9 9 9 9 11 11 10 10 10 8 9 10 11 11 9 8 5 7 11 9 8 7 10 12 12 13 12 10 10 12 12 10 9 nan
nan 16 15 14 10 11 5 5 20 13 17 14 11 16 11 10 9 8 15 16 9 9 11 11 10 11 10 6 9 11 14 14 9 13 14 14 11 9 9 10 9 9 nan
nan 15 15 16 13 12 10 5 1 5 19 30 29 7 14 20 11 5 6 9 11 11 10 9 9 10 11 12 11 12 11 12 11 10 11 14 13 12 10 11 11 11 nan
nan 16 12 13 14 9 10 10 5 1 -6 12 8 20 28 15 7 7 8 7 8 7 11 10 11 10 10 9 10 11 9 8 12 13 10 9 12 13 12 12 9 9 nan
nan 16 15 10 11 10 8 10 9 11 3 2 7 12 10 16 14 7 6 9 12 13 13 10 10 10 11 10 9 10 10 11 12 10 10 12 11 12 14 10 9 9 nan
nan 15 18 14 12 12 10 12 12 8 11 8 10 9 8 5 7 12 11 13 14 14 10 10 9 11 13 12 10 9 10 10 11 11 11 11 11 12 12 14 15 11 nan
nan 15 16 15 12 10 9 9 11 11 13 7 10 12 11 7 12 13 10 11 13 12 14 13 9 9 9 10 11 11 11 10 9 10 10 11 11 11 11 10 12 17 nan
nan 17 17 12 11 10 10 9 10 11 12 11 7 8 10 16 16 11 12 12 12 11 9 14 15 11 9 8 9 12 14 11 10 13 10 7 9 11 11 11 10 11 nan
nan 18 17 14 12 13 12 14 15 12 11 13 10 9 9 12 10 12 12 12 10 11 11 10 10 12 12 12 13 11 11 11 10 10 11 13 13 9 8 9 10 11 nan
nan 19 15 13 13 11 13 12 13 16 13 11 14 12 12 11 9 10 11 10 11 11 10 12 12 12 10 11 12 13 10 9 9 10 12 10 10 10 13 13 10 9 nan
nan 13 14 14 13 9 10 12 11 10 11 9 10 14 16 13 12 10 10 10 11 11 11 11 11 10 10 15 15 12 9 9 10 8 11 14 10 9 9 9 13 14 nan
nan 10 11 11 10 11 14 12 10 11 10 9 12 10 10 12 12 10 9 10 11 10 10 10 11 10 14 15 12 11 9 7 10 11 7 10 11 12 13 12 10 10 nan
nan nan nan nan nan nan nan nan nan nan nan nan nan nan nan nan nan nan nan nan nan nan nan nan nan nan nan nan nan nan nan nan nan nan nan nan nan nan nan nan nan nan nan
CAPE
2843 2679 2704 2935 3183 3467 3330 3563 3888 4179 4166 4169 4112 4212 4260 4093 4125 4261 4096 3918 3873 3613 3042 2812 2539 2380 2403 669 666 512 0 0 0 0 73 44 54 1 22 0 3 0 0
2685 2921 2704 3203 3117 3288 3450 3427 3504 3767 4202 4476 4661 4683 4671 4395 4506 3891 3885 4149 3722 3146 3270 2846 3044 2958 2620 828 452 1 0 0 0 34 11 17 4 52 37 51 58 0 0
2566 2546 3185 3296 3387 3536 3693 3635 3975 4106 4238 4161 4646 4661 4751 4721 4323 4162 4420 3062 3261 3429 3232 3058 2557 2087 2154 1894 75 2 0 1 0 3 9 15 31 11 42 88 67 49 0
2514 2566 3112 3117 3474 3615 4067 4152 4172 4448 4516 4492 4697 4899 4806 4600 3945 3292 2633 2947 3472 3174 2720 2292 1642 1239 1198 216 4 2 4 1 0 28 6 10 25 27 35 51 90 89 0
2726 2832 2729 3376 3468 3694 3813 4343 4278 4342 4385 4663 4795 4791 4666 1969 733 1058 1714 2739 2999 2516 2536 1866 857 294 524 77 2 0 0 0 2 10 10 37 38 48 42 118 91 95 75
4305 3405 3681 3683 4004 3929 3909 4118 4400 4494 4678 4804 4635 4645 4137 104 0 0 0 2390 2461 2512 2038 1713 577 245 0 0 0 0 0 0 9 2 10 20 40 49 77 31 70 91 88
5032 4473 4130 4404 4109 4227 4197 4492 4489 4678 4881 4935 4831 4543 2905 23 0 0 0 1943 2141 1880 1459 737 455 6 1 0 0 0 0 0 0 48 2 5 55 121 99 66 66 99 83
4732 4981 4603 4671 4476 4608 4569 4508 4870 4839 5015 4962 4336 3288 848 0 0 0 0 1199 1815 1303 597 779 571 290 13 0 0 0 0 0 0 0 76 54 80 147 97 99 89 73 80
4813 4609 5055 4712 4832 4713 4779 4840 4883 4924 5085 4357 3448 2799 927 0 1 0 0 1909 1517 1100 573 0 281 160 0 0 2 0 0 0 0 0 5 9 21 40 59 73 73 69 65
4253 4879 4826 5096 4934 4838 4844 4847 4923 4970 4270 3101 2409 1470 163 0 0 0 0 885 1648 795 602 0 0 0 0 0 3 0 0 0 0 0 0 0 5 0 0 124 38 69 54
3668 3263 4697 4847 4934 4778 4807 4931 4849 4071 3111 2078 1256 800 610 0 0 0 0 405 412 699 423 200 0 0 0 0 0 20 0 0 0 0 4 3 0 0 0 52 114 79 67
3853 3470 2900 4269 4507 4668 4627 4797 3927 2798 2143 1286 970 790 284 0 0 0 0 0 0 576 327 0 0 0 0 0 0 0 0 0 0 0 0 0 0 0 0 36 46 76 96
3136 4330 3291 3114 2957 3214 3289 3459 2892 1571 1037 847 716 610 203 0 0 0 0 0 0 63 1 0 0 0 0 0 0 0 0 0 0 15 20 6 7 3 0 47 96 38 43
2580 3422 2660 1394 994 508 612 1205 989 1010 895 868 663 547 420 2 0 0 0 0 0 0 0 0 0 0 0 0 0 0 0 3 20 51 64 15 24 33 32 32 63 72 48
2189 2513 2201 720 898 50 0 0 7 0 98 903 680 207 41 0 0 0 0 3 0 0 7 0 0 0 3 21 8 16 62 10 17 42 90 68 29 29 12 17 20 49 22
1638 1834 1834 1344 594 12 1 0 0 1 0 0 0 0 0 0 0 1 2 0 0 0 9 6 3 4 1 1 0 0 27 11 48 8 20 47 43 54 16 23 30 20 34
1262 906 1418 383 6 0 2 0 1 1 0 0 0 0 0 0 0 0 0 0 0 0 0 4 2 1 2 2 2 1 1 1 0 21 0 0 4 0 19 40 25 12 13
927 722 1031 986 36 0 1 1 0 0 0 0 0 0 0 0 0 0 0 0 0 0 1 8 1 3 1 0 0 2 2 1 1 1 1 0 0 3 32 28 49 36 23
1240 941 395 871 79 0 0 0 0 0 0 0 0 0 0 0 0 0 0 0 0 0 0 1 0 1 7 5 0 2 3 2 2 2 2 2 1 1 0 18 22 3 1
1029 381 216 8 2 0 0 0 0 0 0 0 0 0 0 0 0 0 0 0 0 0 1 0 0 0 1 2 4 6 8 5 1 0 0 2 1 1 1 0 0 0 0
709 422 242 35 0 0 1 0 2 2 0 0 0 0 0 0 0 0 0 0 0 0 0 0 0 0 4 8 0 2 3 1 1 4 0 0 0 1 0 1 2 0 3
286 365 197 60 3 4 19 20 14 2 0 0 0 0 0 0 0 0 0 0 0 0 0 0 0 0 0 0 2 0 0 0 0 0 1 0 0 0 0 0 0 1 0
0 5 0 0 0 0 0 0 0 2 0 0 0 0 0 0 0 0 0 0 0 0 1 2 0 0 0 1 0 0 0 0 0 0 1 0 0 0 1 0 0 0 1
0 1 0 0 0 0 0 0 0 0 0 0 0 0 0 0 0 0 0 0 4 6 7 7 1 0 0 1 3 0 0 0 0 0 0 0 0 1 0 0 0 2 0
1 1 1 1 2 6 2 6 0 0 0 0 0 0 0 0 0 0 3 7 5 0 0 0 0 1 0 0 0 0 0 0 0 0 0 0 0 1 0 0 0 0 0
0 3 2 3 3 0 1 1 0 0 0 0 0 0 0 0 0 0 0 2 1 0 2 3 1 1 2 0 0 0 0 0 0 0 0 0 0 0 0 2 1 0 0